Tracking 19490 objects as of 24-Jan-2019
HD Live streaming from Space Station
objects crossing your sky now

FENGYUN 1C DEB

Track FENGYUN 1C DEB now!
10-day predictions


NORAD ID: 30454
Int'l Code: 1999-025AFR
Perigee: 761.2 km
Apogee: 1,077.5 km
Inclination: 98.1 °
Period: 103.2 minutes
Semi major axis: 7290 km
RCS: 0.027 m2 (small)
Launch date: May 10, 1999
Source: People's Republic of China (PRC)
Launch site: Taiyaun Space Center, China (TSC)

Note: This is SATELLITE DEBRIS
aabbcc
Your satellite tracking list
Your tracking list is empty




NASA's NSSDC Master Catalog

Two Line Element Set (TLE):
1 30454U 99025AFR 19023.55594321  .00000482  00000-0  31713-3 0  9992
2 30454  98.1312 236.1408 0216925 129.5937 286.4295 13.94687850607704
Source of the keplerian elements: AFSPC